Port Heiden, AK

10:24 AM AKDT on October 20, 2017 (GMT -0800)
Port Heiden

Weather History for PAPH - January, 2014

Change the Weather History Date:

Thursday, January 16, 2014

  Actual Average Record
Temperature  
Mean Temperature 40 °F -  
Max Temperature 44 °F 29 °F 48 °F (2002)
Min Temperature 39 °F 20 °F 1 °F (2012)
Degree Days  
Heating Degree Days 24    
Moisture  
Dew Point 31 °F    
Average Humidity 70    
Maximum Humidity 81    
Minimum Humidity 61    
Precipitation  
Precipitation 0.02 in - - ()
Sea Level Pressure  
Sea Level Pressure 29.16 in    
Wind  
Wind Speed 18 mph (East)    
Max Wind Speed 34 mph    
Max Gust Speed 47 mph    
Visibility 10 miles    
Events      
Averages and records for this station are not official NWS values.
T = Trace of Precipitation, MM = Missing Value Source: NWS Daily Summary

Daily Weather History Graph

Daily Weather History Graph

Search for Another Location

Airport or City:

Trip Planner

Search our weather history database for the weather conditions in past years. The results will help you decide how hot, cold, wet, or windy it might be!

Date:

Astronomy

Jan. 16, 2014 Rise Set
Actual Time 9:59 AM AKST 5:29 PM AKST
Civil Twilight 9:13 AM AKST 6:15 PM AKST
Nautical Twilight 8:25 AM AKST 7:04 PM AKST
Astronomical Twilight 7:39 AM AKST 7:49 PM AKST
Moon 6:55 PM AKST (1/16) 9:39 AM AKST (1/16)
Length of Visible Light 9h 01m
Length of Day
7h 30m
Full, 100% of the Moon is Illuminated
Jan 16
Full
Jan 23
Last Quarter
Jan 30
New
Feb 6
First Quarter
Feb 14
Full

Hourly Weather History & Observations

Time (AKST) Temp. Windchill Dew Point Humidity Pressure Visibility Wind Dir Wind Speed Gust Speed Precip Events Conditions
12:16 AM 39.2 °F 30.5 °F 32.0 °F 75% 29.18 in 10.0 mi ESE 16.1 mph - N/A   Clear
12:36 AM 39.2 °F 31.6 °F 32.0 °F 75% 29.18 in 10.0 mi SE 12.7 mph - N/A   Partly Cloudy
12:56 AM 39.2 °F 33.0 °F 32.0 °F 75% 29.19 in 10.0 mi ESE 9.2 mph - N/A   Clear
1:16 AM 39.2 °F 32.5 °F 32.0 °F 75% 29.19 in 10.0 mi ESE 10.4 mph - N/A   Clear
1:36 AM 39.2 °F 30.8 °F 30.2 °F 70% 29.18 in 10.0 mi ESE 15.0 mph - N/A   Clear
1:56 AM 39.2 °F 29.3 °F 30.2 °F 70% 29.17 in 10.0 mi ESE 20.7 mph - N/A   Clear
2:16 AM 39.2 °F 29.3 °F 30.2 °F 70% 29.17 in 10.0 mi SE 20.7 mph - N/A   Clear
2:36 AM 39.2 °F 28.7 °F 30.2 °F 70% 29.16 in 10.0 mi SE 23.0 mph - N/A   Partly Cloudy
2:56 AM 39.2 °F 29.3 °F 30.2 °F 70% 29.17 in 10.0 mi ESE 20.7 mph - N/A   Partly Cloudy
3:16 AM 39.2 °F 29.3 °F 30.2 °F 70% 29.18 in 10.0 mi SE 20.7 mph - N/A   Clear
3:36 AM 39.2 °F 29.6 °F 30.2 °F 70% 29.19 in 10.0 mi SE 19.6 mph - N/A   Clear
3:56 AM 39.2 °F 30.2 °F 30.2 °F 70% 29.21 in 10.0 mi SE 17.3 mph 26.5 mph N/A   Clear
4:16 AM 39.2 °F 29.0 °F 30.2 °F 70% 29.20 in 10.0 mi SE 21.9 mph - N/A   Clear
4:36 AM 39.2 °F 30.8 °F 30.2 °F 70% 29.22 in 10.0 mi SE 15.0 mph - N/A   Clear
4:56 AM 39.2 °F 30.2 °F 30.2 °F 70% 29.21 in 10.0 mi SE 17.3 mph - N/A   Clear
5:16 AM 39.2 °F 30.2 °F 30.2 °F 70% 29.21 in 10.0 mi SE 17.3 mph - N/A   Clear
5:36 AM 39.2 °F 30.8 °F 30.2 °F 70% 29.22 in 10.0 mi SE 15.0 mph - N/A   Clear
5:56 AM 39.2 °F 30.2 °F 30.2 °F 70% 29.23 in 10.0 mi SE 17.3 mph 21.9 mph N/A   Clear
6:16 AM 39.2 °F 30.2 °F 30.2 °F 70% 29.25 in 10.0 mi SE 17.3 mph - N/A   Clear
6:36 AM 39.2 °F 29.8 °F 30.2 °F 70% 29.25 in 10.0 mi SE 18.4 mph - N/A   Clear
6:56 AM 39.2 °F 30.8 °F 30.2 °F 70% 29.25 in 10.0 mi SE 15.0 mph - N/A   Clear
7:16 AM 39.2 °F 30.2 °F 30.2 °F 70% 29.25 in 10.0 mi SE 17.3 mph - N/A   Clear
7:36 AM 39.2 °F 30.5 °F 30.2 °F 70% 29.26 in 10.0 mi SE 16.1 mph 21.9 mph N/A   Clear
7:56 AM 39.2 °F 29.8 °F 30.2 °F 70% 29.26 in 10.0 mi SE 18.4 mph - N/A   Clear
8:16 AM 39.2 °F 29.8 °F 30.2 °F 70% 29.26 in 10.0 mi SE 18.4 mph - N/A   Clear
8:36 AM 39.2 °F 29.3 °F 30.2 °F 70% 29.26 in 10.0 mi SE 20.7 mph 24.2 mph N/A   Clear
8:56 AM 39.2 °F 29.3 °F 30.2 °F 70% 29.28 in 10.0 mi SE 20.7 mph 27.6 mph N/A   Clear
9:16 AM 39.2 °F 29.3 °F 28.4 °F 65% 29.28 in 10.0 mi SE 20.7 mph 27.6 mph N/A   Clear
9:36 AM 39.2 °F 28.5 °F 30.2 °F 70% 29.27 in 10.0 mi SE 24.2 mph - N/A   Clear
9:56 AM 39.2 °F 29.0 °F 30.2 °F 70% 29.28 in 10.0 mi SE 21.9 mph 28.8 mph N/A   Clear
10:16 AM 39.2 °F 30.2 °F 30.2 °F 70% 29.30 in 10.0 mi ESE 17.3 mph 23.0 mph N/A   Clear
10:36 AM 39.2 °F 29.8 °F 30.2 °F 70% 29.31 in 10.0 mi ESE 18.4 mph 23.0 mph N/A   Clear
10:56 AM 39.2 °F 30.2 °F 30.2 °F 70% 29.31 in 10.0 mi ESE 17.3 mph 21.9 mph N/A   Clear
11:16 AM 39.2 °F 28.7 °F 32.0 °F 75% 29.31 in 10.0 mi SE 23.0 mph 29.9 mph N/A   Clear
11:36 AM 39.2 °F 29.3 °F 32.0 °F 75% 29.32 in 10.0 mi SE 20.7 mph - N/A   Partly Cloudy
11:56 AM 39.2 °F 32.0 °F 32.0 °F 75% 29.34 in 10.0 mi SSE 11.5 mph - N/A   Mostly Cloudy
12:16 PM 39.2 °F 30.8 °F 32.0 °F 75% 29.34 in 10.0 mi SE 15.0 mph - N/A   Mostly Cloudy
12:36 PM 41.0 °F 33.9 °F 32.0 °F 70% 29.32 in 10.0 mi ESE 12.7 mph - N/A   Partly Cloudy
12:56 PM 39.2 °F 33.0 °F 32.0 °F 75% 29.31 in 10.0 mi SE 9.2 mph - N/A   Clear
1:16 PM 41.0 °F 37.1 °F 32.0 °F 70% 29.30 in 10.0 mi SE 5.8 mph - N/A   Clear
1:36 PM 39.2 °F - 32.0 °F 75% 29.29 in 10.0 mi Calm Calm - N/A   Clear
1:56 PM 41.0 °F 37.1 °F 30.2 °F 65% 29.29 in 10.0 mi ENE 5.8 mph - N/A   Partly Cloudy
2:16 PM 41.0 °F 33.9 °F 28.4 °F 61% 29.28 in 10.0 mi NE 12.7 mph 24.2 mph N/A   Mostly Cloudy
2:36 PM 41.0 °F 32.5 °F 30.2 °F 65% 29.27 in 10.0 mi ENE 17.3 mph - N/A   Scattered Clouds
2:56 PM 39.2 °F 30.5 °F 30.2 °F 70% 29.27 in 10.0 mi ENE 16.1 mph 21.9 mph N/A   Scattered Clouds
3:16 PM 39.2 °F 31.6 °F 30.2 °F 70% 29.23 in 10.0 mi NE 12.7 mph 17.3 mph N/A   Scattered Clouds
3:36 PM 41.0 °F 31.1 °F 32.0 °F 70% 29.22 in 10.0 mi NE 23.0 mph 27.6 mph N/A   Partly Cloudy
3:56 PM 41.0 °F 32.2 °F 32.0 °F 70% 29.22 in 10.0 mi East 18.4 mph - N/A   Mostly Cloudy
4:16 PM 42.8 °F 34.3 °F 32.0 °F 66% 29.19 in 10.0 mi NE 19.6 mph - N/A   Overcast
4:36 PM 39.2 °F 29.0 °F 33.8 °F 81% 29.18 in 10.0 mi NNE 21.9 mph 26.5 mph N/A   Mostly Cloudy
4:56 PM 39.2 °F 31.6 °F 32.0 °F 75% 29.18 in 10.0 mi NNE 12.7 mph - N/A   Overcast
5:16 PM 39.2 °F 33.0 °F 32.0 °F 75% 29.17 in 10.0 mi NE 9.2 mph - N/A   Overcast
5:36 PM 42.8 °F 34.5 °F 33.8 °F 70% 29.13 in 10.0 mi East 18.4 mph 25.3 mph N/A   Overcast
5:56 PM 41.0 °F 30.5 °F 32.0 °F 70% 29.11 in 10.0 mi NNE 26.5 mph 36.8 mph N/A   Overcast
6:16 PM 42.8 °F 32.5 °F 32.0 °F 66% 29.09 in 10.0 mi NNE 28.8 mph 34.5 mph N/A   Overcast
6:36 PM 41.0 °F 31.4 °F 32.0 °F 70% 29.09 in 10.0 mi NE 21.9 mph 28.8 mph N/A   Overcast
6:56 PM 39.2 °F 28.5 °F 32.0 °F 75% 29.06 in 10.0 mi NNE 24.2 mph - N/A   Overcast
7:16 PM 39.2 °F 28.0 °F 32.0 °F 75% 29.03 in 10.0 mi NE 26.5 mph 31.1 mph N/A   Overcast
7:36 PM 39.2 °F 27.8 °F 33.8 °F 81% 29.02 in 7.0 mi NE 27.6 mph 32.2 mph 0.01 in   Overcast
7:56 PM 39.2 °F 28.7 °F 32.0 °F 75% 29.00 in 7.0 mi NE 23.0 mph 29.9 mph 0.01 in   Overcast
8:16 PM 39.2 °F 27.6 °F 32.0 °F 75% 28.97 in 8.0 mi NE 28.8 mph 33.4 mph 0.01 in   Overcast
8:36 PM 39.2 °F 27.8 °F 32.0 °F 75% 28.94 in 10.0 mi NE 27.6 mph 41.4 mph 0.01 in   Overcast
8:56 PM 39.2 °F 26.8 °F 32.0 °F 75% 28.91 in 10.0 mi NE 33.4 mph 41.4 mph 0.01 in   Overcast
9:16 PM 39.2 °F 27.4 °F 32.0 °F 75% 28.90 in 10.0 mi NE 29.9 mph 39.1 mph N/A   Overcast
9:36 PM 39.2 °F 27.4 °F 32.0 °F 75% 28.88 in 10.0 mi NE 29.9 mph 39.1 mph N/A   Overcast
9:56 PM 41.0 °F 30.0 °F 32.0 °F 70% 28.85 in 10.0 mi NE 28.8 mph 40.3 mph N/A   Overcast
10:16 PM 42.8 °F 31.6 °F 33.8 °F 70% 28.84 in 10.0 mi NE 34.5 mph 42.6 mph N/A   Overcast
10:36 PM 42.8 °F 32.1 °F 32.0 °F 66% 28.83 in 10.0 mi NE 31.1 mph 47.2 mph N/A   Overcast
10:56 PM 42.8 °F 34.3 °F 32.0 °F 66% 28.82 in 10.0 mi NE 19.6 mph 31.1 mph N/A   Overcast
11:16 PM 42.8 °F 34.0 °F 32.0 °F 66% 28.80 in 10.0 mi NE 20.7 mph 29.9 mph N/A   Overcast
11:36 PM 42.8 °F 34.8 °F 32.0 °F 66% 28.78 in 10.0 mi NE 17.3 mph 24.2 mph N/A   Overcast
11:56 PM 44.6 °F 36.6 °F 32.0 °F 61% 28.77 in 10.0 mi NE 19.6 mph 31.1 mph N/A   Overcast